BEIDOU-3 M21

Last updated on Tue Sep 16 2025 00:02:34 GMT+0000 (Coordinated Universal Time)

1 44794U 19078B 25258.29830132 -.00000051 00000+0 00000+0 0 9998 2 44794 54.1589 309.4562 0002724 22.8239 337.2513 1.86227689 39535
UTC large
Height (km)
Speed (km/s)
/
Latitude / Longitude
Inclination (degrees)
Orbital Period (minutes)
Azimuth
Elevation
Range (km)
Doppler Factor

Next 0 passes for location: London (51.5072 / 0.1276)

Sorry there are no passes over London.